This is the latest recevied weather packets stored in our database for station/object NO4D. If no packets are shown the sender has not sent any weather packets the latest 10 day(s).
| Time | Temp. | Humidity | Pressure | Rain* | Wind** | Luminosity | Snow |
|---|---|---|---|---|---|---|---|
| 1778200587 | 17.22° C | 71% | 1011.8 hPa | 0 mm | - | 0 W/m² | - |
| 1778200285 | 17.22° C | 71% | 1011.4 hPa | 0 mm | - | 0 W/m² | - |
| 1778199981 | 17.78° C | 71% | 1011.5 hPa | 0 mm | - | 0 W/m² | - |
| 1778199679 | 17.78° C | 71% | 1011.6 hPa | 0 mm | - | 1 W/m² | - |
| 1778199374 | 17.78° C | 70% | 1011.5 hPa | 0 mm | - | 3 W/m² | - |
| 1778199070 | 17.78° C | 69% | 1011.4 hPa | 0 mm | - | 9 W/m² | - |
| 1778198766 | 18.33° C | 70% | 1011 hPa | 0 mm | - | 15 W/m² | - |
| 1778198464 | 18.33° C | 70% | 1011 hPa | 0 mm | - | 19 W/m² | - |
| 1778198161 | 18.33° C | 71% | 1010.9 hPa | 0 mm | - | 25 W/m² | - |
| 1778197858 | 18.89° C | 70% | 1010.8 hPa | 0 mm | - | 30 W/m² | - |
| 1778197554 | 18.89° C | 70% | 1010.9 hPa | 0 mm | - | 36 W/m² | - |
| 1778197251 | 18.89° C | 70% | 1010.8 hPa | 0 mm | - | 37 W/m² | - |
| 1778196948 | 19.44° C | 69% | 1010.4 hPa | 0 mm | - | 43 W/m² | - |
| 1778196647 | 20° C | 69% | 1010.3 hPa | 0 mm | - | 51 W/m² | - |
| 1778196342 | 20° C | 70% | 1010.1 hPa | 0 mm | - | 52 W/m² | - |
| 1778196040 | 20.56° C | 69% | 1010 hPa | 0 mm | - | 66 W/m² | - |
| 1778195736 | 21.11° C | 69% | 1009.8 hPa | 0 mm | - | 88 W/m² | - |
| 1778195434 | 21.67° C | 69% | 1009.7 hPa | 0 mm | - | 86 W/m² | - |
| 1778195130 | 21.67° C | 69% | 1009.8 hPa | 0 mm | - | 133 W/m² | - |
| 1778194827 | 22.22° C | 69% | 1009.6 hPa | 0 mm | - | 161 W/m² | - |
| 1778194521 | 22.22° C | 71% | 1009.4 hPa | 0 mm | - | 164 W/m² | - |
| 1778194218 | 22.78° C | 69% | 1009.5 hPa | 0 mm | - | 131 W/m² | - |
| 1778193914 | 22.78° C | 70% | 1009.4 hPa | 0 mm | - | 108 W/m² | - |
| 1778193610 | 22.78° C | 70% | 1009.2 hPa | 0 mm | - | 78 W/m² | - |
| 1778193307 | 22.78° C | 69% | 1009.3 hPa | 0 mm | - | 88 W/m² | - |
* Rain latest hour (hover to see other rain measurements)
** Current wind speed in m/s (hover to see current wind gust speed)